User: anonymous   Login
Location: Unspecified
(0.0000°N, 0.0000°E)
Time: 13:20:11
(UTC+00:00)
Language:

HOOPOE (2U) - Orbit

View from above orbital plane
View from above orbital plane
View from above satellite
View from above satellite

Ground track
Ground track

The orbit data is extracted from the following two-line orbital elements,

1 42718U 98067LZ  18287.92016001  .00119530  00000-0  47177-3 0  9995
2 42718  51.6264  94.0990 0003266 292.6861  67.3798 15.85950139 79899
Epoch (UTC): 14 October 2018 22:05:01
Eccentricity: 0.0003266
inclination: 51.6264°
perigee height: 311 km
apogee height: 316 km
right ascension of ascending node: 94.0990°
argument of perigee: 292.6861°
revolutions per day: 15.85950139
mean anomaly at epoch: 67.3798°
orbit number at epoch: 7989

The dashed part of the orbit path shows where the satellite is in the earth's shadow,  

DLR